Temp
10 11 11 11 11 10 10 10 10 10 10 10 10 10 10 10 10 10 10 10 10 10 10 10 10 10 10 10 10 10 10 10 10 10 10 10 10 10 10 10 10 10
10 10 10 10 11 11 10 10 10 10 10 10 10 10 10 10 11 11 11 10 10 10 10 10 10 10 10 10 10 10 10 10 10 10 10 10 10 10 10 10 10 10
11 11 11 10 10 11 10 10 10 10 10 10 10 10 10 10 10 11 11 11 10 10 10 10 10 10 10 10 10 10 10 10 10 10 10 10 10 10 10 10 10 10
11 11 11 10 10 10 10 10 10 10 10 10 10 10 10 10 10 10 11 11 11 11 11 10 10 10 10 10 10 10 10 10 10 10 10 10 10 10 10 10 10 10
11 11 11 11 10 10 10 10 10 10 10 10 10 10 10 10 10 10 11 11 11 11 11 10 10 10 10 10 10 10 10 10 10 10 10 10 10 10 10 10 10 10
10 10 10 10 10 10 11 10 10 10 10 10 10 10 10 10 10 10 10 11 11 11 11 10 10 10 10 10 10 10 10 10 10 10 10 10 10 10 10 10 10 10
10 10 10 10 10 10 10 11 11 10 10 10 10 10 10 10 10 10 10 10 11 11 11 10 10 10 10 10 10 10 10 10 10 10 10 10 10 10 10 10 10 10
10 10 10 10 10 10 10 11 11 10 10 10 10 10 10 10 10 10 10 10 10 10 10 10 10 10 10 10 10 10 10 10 10 10 10 10 10 10 10 10 10 10
10 10 10 10 10 10 10 10 10 10 10 10 10 10 10 10 10 10 10 10 10 10 10 10 10 10 10 10 10 10 10 10 10 10 10 10 10 10 10 10 10 10
10 10 10 10 10 10 10 10 10 10 10 10 10 10 10 10 10 10 10 10 10 10 10 10 10 10 10 10 10 10 10 10 10 10 10 10 10 10 10 10 10 10
10 11 11 10 10 10 10 10 10 10 10 10 10 10 10 10 10 10 10 11 11 10 10 10 10 10 10 10 10 10 11 11 11 10 10 10 10 10 10 10 10 10
10 11 11 10 10 10 10 10 10 10 10 10 10 10 10 10 10 10 11 11 11 11 11 11 10 10 10 10 10 10 11 11 11 11 11 10 10 10 10 10 11 10
10 10 10 10 10 10 10 10 10 10 10 10 10 10 10 10 10 10 10 11 11 11 11 11 11 11 11 10 10 10 11 11 11 11 11 11 10 10 10 10 11 11
10 10 10 10 10 10 10 10 10 10 10 10 10 10 10 10 10 10 10 10 10 11 11 11 11 11 11 10 10 10 11 11 11 11 11 11 10 10 10 10 10 10
10 10 10 10 10 10 10 10 10 10 10 10 10 10 10 10 10 10 10 10 10 10 11 11 11 11 11 10 10 10 10 10 11 10 10 11 10 10 10 10 10 10
10 10 10 10 10 10 9 9 10 10 10 10 10 10 10 10 10 10 10 10 10 10 10 10 10 11 11 10 10 10 10 10 10 11 11 11 11 11 10 10 10 10
10 10 10 10 9 9 9 10 10 10 10 10 10 10 10 10 11 11 11 10 10 10 10 10 10 10 10 10 10 10 10 10 10 10 10 11 11 11 11 10 10 10
9 10 10 10 9 9 9 9 9 9 9 9 10 10 10 11 10 11 11 11 11 11 11 10 10 10 10 10 10 10 10 10 10 10 10 11 11 11 11 10 10 10
9 9 10 10 9 9 9 9 9 9 9 9 9 10 10 11 11 11 11 11 11 11 11 11 11 11 11 11 11 11 11 11 11 11 11 11 11 11 11 11 11 10
10 10 10 10 10 9 9 9 9 9 9 9 9 9 10 10 10 10 10 10 11 11 11 11 11 11 11 11 11 11 11 11 11 11 11 11 11 11 11 11 11 11
10 10 10 10 10 9 9 9 9 9 9 9 9 9 9 10 10 10 10 10 10 10 10 11 11 11 11 11 11 11 11 11 11 11 11 11 11 11 11 11 11 11
10 10 10 10 10 10 10 10 10 10 9 9 9 9 9 10 10 10 10 10 10 10 10 10 11 11 11 11 11 10 10 11 11 11 10 11 11 11 11 11 11 11
10 10 10 10 10 10 10 10 9 9 9 9 9 9 9 10 9 9 9 9 9 9 9 10 10 10 10 10 10 10 10 10 10 10 10 11 11 11 11 11 11 10
10 10 10 10 10 10 10 10 9 9 9 9 9 9 9 9 9 9 9 9 9 9 9 9 9 9 9 9 10 9 10 10 10 10 10 10 11 11 11 11 11 11
9 9 9 9 10 10 9 9 9 10 10 10 9 9 9 9 9 9 9 9 9 9 9 9 9 9 9 9 9 9 9 9 9 10 10 10 10 10 10 11 11 11
9 9 9 10 10 9 9 9 9 9 10 10 10 9 9 9 9 9 9 9 9 9 9 9 9 9 9 9 9 10 9 9 9 9 10 10 10 10 10 10 11 11
Height
3236 3237 3239 3240 3241 3242 3243 3243 3244 3245 3246 3247 3247 3248 3249 3250 3250 3251 3252 3252 3253 3253 3254 3255 3255 3256 3257 3258 3259 3259 3260 3261 3261 3262 3262 3263 3263 3264 3265 3265 3265 3266
3235 3236 3238 3239 3241 3242 3242 3243 3244 3245 3246 3246 3247 3248 3249 3250 3250 3251 3251 3252 3252 3253 3254 3255 3256 3257 3257 3258 3259 3259 3260 3260 3260 3261 3262 3262 3263 3263 3264 3265 3265 3266
3234 3236 3237 3239 3240 3241 3242 3243 3243 3244 3245 3246 3247 3248 3249 3249 3250 3251 3251 3252 3253 3254 3254 3255 3256 3257 3257 3258 3259 3259 3259 3260 3260 3260 3261 3262 3262 3263 3264 3264 3265 3266
3234 3235 3237 3238 3240 3241 3242 3242 3243 3244 3245 3246 3247 3248 3248 3249 3250 3251 3251 3252 3253 3254 3254 3255 3256 3256 3257 3258 3258 3259 3259 3259 3260 3260 3260 3261 3262 3262 3263 3264 3265 3265
3233 3235 3236 3237 3239 3240 3241 3242 3243 3244 3245 3246 3247 3248 3249 3249 3250 3251 3252 3253 3253 3254 3254 3255 3256 3256 3257 3258 3258 3258 3259 3259 3259 3260 3260 3261 3261 3262 3262 3263 3264 3265
3232 3234 3235 3236 3238 3239 3241 3242 3243 3244 3245 3246 3247 3248 3249 3250 3251 3252 3252 3253 3253 3254 3254 3254 3255 3256 3256 3257 3258 3258 3259 3259 3259 3259 3260 3260 3261 3261 3262 3263 3264 3264
3231 3233 3234 3235 3236 3238 3239 3241 3242 3243 3244 3245 3246 3247 3248 3249 3250 3251 3252 3253 3253 3253 3253 3254 3255 3255 3256 3256 3257 3258 3258 3258 3259 3259 3259 3260 3260 3261 3262 3263 3263 3264
3230 3232 3233 3234 3235 3236 3238 3240 3241 3242 3243 3244 3246 3247 3248 3249 3250 3250 3251 3252 3252 3253 3253 3253 3254 3254 3255 3256 3256 3257 3257 3258 3258 3259 3259 3259 3260 3261 3261 3262 3262 3263
3229 3230 3232 3233 3234 3235 3237 3238 3240 3241 3242 3243 3245 3246 3247 3248 3249 3250 3250 3251 3252 3252 3253 3253 3253 3254 3255 3255 3255 3256 3256 3257 3257 3258 3258 3259 3259 3260 3260 3261 3261 3262
3227 3228 3230 3231 3233 3234 3235 3237 3238 3239 3240 3241 3243 3244 3246 3247 3248 3249 3249 3250 3251 3252 3252 3252 3253 3253 3254 3254 3255 3255 3256 3256 3257 3257 3258 3258 3259 3259 3259 3260 3260 3261
3225 3226 3227 3229 3231 3232 3234 3235 3236 3237 3238 3239 3240 3242 3243 3245 3246 3247 3248 3249 3250 3251 3251 3252 3252 3252 3253 3253 3254 3254 3255 3255 3256 3256 3257 3257 3258 3258 3258 3259 3260 3260
3224 3225 3226 3227 3229 3231 3233 3234 3234 3235 3236 3237 3238 3239 3241 3242 3244 3246 3247 3248 3249 3250 3250 3251 3251 3252 3252 3252 3253 3253 3254 3254 3255 3255 3256 3256 3257 3257 3257 3258 3258 3259
3223 3225 3226 3226 3228 3229 3231 3232 3233 3234 3235 3235 3236 3237 3238 3239 3241 3243 3245 3246 3247 3248 3249 3250 3250 3251 3251 3251 3252 3252 3253 3253 3254 3254 3255 3255 3255 3256 3256 3256 3257 3257
3221 3223 3224 3225 3227 3228 3229 3230 3231 3232 3233 3234 3235 3235 3235 3237 3238 3240 3242 3243 3244 3246 3247 3247 3248 3249 3249 3250 3251 3251 3252 3252 3253 3253 3253 3254 3254 3255 3255 3255 3255 3256
3219 3221 3222 3224 3226 3227 3228 3229 3230 3231 3232 3233 3234 3235 3235 3235 3236 3237 3239 3240 3242 3243 3244 3245 3245 3246 3247 3248 3249 3249 3250 3250 3251 3251 3252 3252 3252 3253 3253 3254 3254 3255
3217 3219 3220 3222 3223 3225 3226 3227 3228 3229 3230 3231 3232 3233 3234 3234 3234 3234 3236 3237 3239 3240 3241 3242 3243 3244 3245 3245 3246 3247 3247 3248 3248 3249 3250 3250 3250 3251 3251 3252 3252 3253
3215 3217 3218 3219 3221 3222 3224 3225 3226 3226 3227 3228 3230 3231 3232 3233 3232 3232 3233 3234 3236 3237 3238 3239 3240 3241 3242 3243 3243 3244 3244 3245 3245 3246 3247 3247 3248 3249 3249 3250 3250 3251
3212 3214 3215 3217 3218 3219 3221 3222 3223 3224 3224 3225 3226 3228 3229 3230 3230 3230 3231 3232 3233 3234 3236 3237 3237 3238 3239 3239 3240 3240 3241 3241 3242 3243 3243 3244 3245 3246 3247 3247 3248 3248
3209 3211 3213 3214 3216 3217 3218 3219 3220 3220 3221 3222 3224 3225 3226 3227 3228 3228 3228 3229 3230 3231 3233 3234 3235 3236 3237 3237 3238 3238 3238 3238 3239 3240 3240 3241 3242 3243 3244 3245 3245 3246
3206 3208 3210 3211 3213 3214 3215 3216 3216 3217 3219 3220 3221 3222 3223 3225 3225 3226 3226 3227 3227 3228 3229 3231 3232 3234 3235 3235 3236 3237 3237 3237 3238 3239 3239 3240 3240 3241 3241 3242 3243 3243
3203 3205 3206 3208 3210 3211 3212 3212 3213 3215 3216 3217 3218 3220 3221 3222 3223 3224 3224 3224 3225 3226 3227 3228 3229 3231 3232 3233 3234 3235 3235 3235 3236 3237 3237 3238 3239 3239 3239 3240 3240 3240
3201 3202 3204 3205 3207 3208 3209 3209 3211 3212 3213 3214 3215 3217 3218 3219 3219 3220 3221 3222 3222 3223 3224 3225 3227 3228 3229 3230 3231 3231 3232 3233 3233 3234 3235 3235 3236 3237 3237 3237 3237 3237
3198 3200 3201 3203 3204 3205 3205 3207 3208 3209 3210 3212 3213 3213 3214 3215 3215 3216 3217 3216 3217 3218 3220 3221 3223 3225 3226 3226 3227 3228 3229 3230 3231 3231 3232 3233 3233 3234 3234 3234 3234 3234
3195 3197 3199 3200 3201 3202 3202 3204 3205 3206 3207 3208 3209 3210 3211 3211 3210 3210 3210 3210 3211 3214 3216 3218 3219 3220 3221 3221 3222 3223 3225 3226 3227 3228 3229 3229 3230 3230 3231 3231 3231 3231
3192 3194 3196 3198 3198 3198 3199 3200 3201 3203 3204 3205 3206 3206 3206 3206 3207 3206 3207 3210 3212 3214 3216 3217 3216 3216 3216 3217 3218 3219 3221 3222 3223 3224 3225 3225 3225 3226 3226 3226 3227 3227
3190 3191 3193 3194 3195 3195 3196 3197 3198 3199 3200 3201 3202 3202 3202 3202 3204 3204 3206 3209 3212 3213 3214 3214 3212 3212 3213 3214 3215 3216 3217 3218 3219 3220 3221 3221 3221 3221 3221 3222 3222 3223
Wind_Speed
14 13 12 11 10 10 9 9 8 9 10 9 9 9 10 10 9 8 8 7 7 7 7 8 8 8 8 9 9 9 9 9 9 9 10 10 10 10 9 9 9 8
15 14 13 12 11 11 9 10 10 10 10 10 10 9 9 9 9 8 7 7 7 7 7 8 8 8 9 9 9 9 9 9 9 9 10 11 11 10 9 10 10 9
15 14 14 13 12 11 10 11 11 10 10 10 10 9 10 10 9 9 7 7 8 8 8 8 9 9 9 9 9 8 8 8 8 9 10 11 12 11 10 10 10 8
14 14 14 14 13 12 12 12 11 11 10 11 11 10 10 10 10 9 8 8 8 8 9 9 9 9 9 9 8 7 7 7 7 7 8 9 11 11 10 10 10 9
14 14 14 15 14 14 13 13 12 12 11 11 11 11 11 11 11 10 10 9 8 8 8 8 9 9 9 8 7 6 6 7 7 6 7 8 9 10 10 10 10 9
16 15 15 15 16 15 15 14 13 13 13 12 12 12 12 12 11 11 10 9 9 8 7 7 8 8 8 7 6 6 6 6 6 5 5 6 8 9 9 10 10 10
17 16 16 16 16 16 16 16 15 14 14 13 13 13 12 11 10 11 10 10 9 8 8 8 8 8 8 7 6 6 5 5 6 5 4 4 5 7 8 8 9 10
17 17 17 16 16 16 16 16 16 15 14 14 14 13 12 11 10 10 11 10 9 8 8 8 8 8 8 8 7 6 6 5 5 5 5 4 5 6 6 6 7 8
19 19 18 17 17 17 16 16 16 16 16 14 13 13 13 12 10 10 10 10 9 8 8 8 8 8 8 8 8 7 7 7 6 6 6 6 6 6 6 6 6 6
21 21 20 19 19 18 17 17 17 17 17 16 15 13 13 12 11 11 10 10 9 9 9 8 8 8 8 8 8 8 8 8 8 7 7 7 7 7 7 7 6 6
23 23 22 21 20 19 19 19 19 19 19 18 17 15 14 13 12 12 11 10 9 9 9 9 9 9 8 8 8 8 8 8 8 8 8 8 8 8 8 8 7 7
24 23 21 21 21 20 20 20 20 21 21 20 19 18 17 15 14 13 12 11 10 10 10 10 10 10 10 10 10 10 9 9 9 9 9 9 9 9 9 9 8 8
24 23 22 22 22 22 21 21 21 21 22 22 21 21 19 18 16 15 14 12 12 12 11 11 11 11 11 11 11 11 11 11 10 10 10 10 10 10 10 10 10 10
24 24 24 24 23 23 23 22 22 22 22 22 22 22 21 20 19 18 17 16 15 14 14 14 13 13 12 12 12 12 12 12 12 12 12 12 12 12 12 12 12 11
26 25 25 24 23 22 22 22 22 21 21 22 22 23 22 22 21 20 19 19 18 18 17 17 16 15 14 14 14 14 13 13 13 13 14 14 14 14 14 14 14 13
26 26 25 25 24 23 22 22 21 21 21 21 21 22 23 23 23 22 22 21 21 21 20 20 19 18 17 17 17 17 16 16 15 15 15 15 15 15 15 15 15 15
24 25 25 26 26 25 24 24 23 22 21 21 21 21 22 24 24 24 23 23 23 23 23 23 22 21 20 20 20 19 19 19 18 18 17 17 17 17 16 16 16 16
22 24 25 26 27 27 27 26 25 24 23 22 22 21 21 23 25 25 24 22 22 23 23 24 24 23 23 23 23 22 22 22 22 21 21 20 19 19 18 18 18 18
20 22 26 28 29 28 28 28 28 26 25 24 25 24 22 22 24 25 25 23 22 22 22 23 23 24 24 24 24 24 24 25 24 23 23 22 21 21 20 20 20 20
18 19 23 26 28 27 26 26 27 28 27 26 26 26 25 24 23 24 24 23 22 21 20 20 20 21 22 22 23 23 24 24 24 23 24 24 23 23 22 22 22 22
16 16 19 22 23 23 21 20 22 25 27 27 27 28 28 27 26 25 23 23 23 22 22 20 19 19 19 19 20 20 21 23 23 22 22 22 23 24 24 24 24 24
17 17 18 20 22 23 21 20 20 21 24 26 28 29 29 29 29 28 27 26 26 25 25 24 22 21 20 20 19 19 20 21 22 22 22 21 22 22 23 23 24 25
21 21 22 22 23 24 23 21 21 22 23 25 27 29 29 30 31 31 32 32 31 30 29 27 25 24 23 23 23 22 22 22 22 23 23 23 23 23 24 24 24 25
24 25 25 25 25 25 24 23 22 23 24 26 28 29 31 32 34 36 37 37 36 34 33 31 29 27 27 27 27 27 26 25 25 25 25 25 25 25 25 26 27 27
24 25 25 26 28 29 28 27 27 26 26 27 28 30 32 34 36 38 38 36 35 33 32 31 31 31 31 30 29 29 29 29 28 28 28 28 28 28 28 28 29 29
19 20 21 24 27 30 31 32 32 31 30 30 30 31 33 35 36 36 35 35 35 33 31 32 32 33 33 32 31 30 30 31 31 31 31 31 31 31 31 30 30 30
Wind_Direction
213 214 210 210 210 208 208 207 207 207 207 202 193 188 186 181 176 181 182 176 185 195 197 201 201 200 200 197 200 204 205 208 207 204 203 202 209 209 202 202 202 206
211 213 210 208 209 212 209 206 208 209 207 204 200 196 193 185 178 179 177 175 187 192 194 203 201 198 197 194 198 204 205 207 205 206 208 207 212 216 210 207 209 209
209 211 210 207 207 211 211 206 206 207 207 206 203 201 198 189 183 182 177 179 191 193 193 201 201 196 196 197 200 201 202 206 205 206 209 207 208 213 212 211 215 219
205 208 209 207 205 207 211 209 205 205 207 207 203 201 199 194 191 191 185 182 189 192 191 197 200 195 193 197 200 200 201 203 205 210 211 207 204 207 212 215 218 221
200 204 206 207 205 205 208 209 206 204 205 207 203 199 200 199 197 198 194 188 187 186 185 190 194 192 191 196 197 197 200 199 204 215 216 207 201 203 212 216 219 221
200 202 203 205 205 204 205 207 207 205 203 205 204 201 200 200 201 202 199 194 191 185 181 183 185 188 192 194 191 193 196 193 200 215 214 205 200 203 212 218 222 224
204 203 203 204 205 205 204 205 206 206 205 205 206 204 201 200 203 206 204 201 198 189 184 186 185 186 191 193 195 198 197 192 198 207 211 210 206 205 211 219 223 225
210 208 206 205 207 207 205 205 206 206 206 207 208 207 204 202 203 208 210 209 207 199 194 195 192 191 193 194 196 200 200 196 197 202 207 212 213 210 212 219 223 227
213 212 210 208 208 208 207 206 206 207 207 206 209 211 209 207 208 212 214 213 214 211 207 205 204 203 202 200 200 202 203 204 204 205 207 209 213 217 221 227 231 235
214 212 212 211 209 207 206 206 205 208 209 206 206 211 212 213 214 216 218 219 219 217 213 213 214 213 211 209 209 208 210 214 215 215 215 213 214 216 221 228 231 235
216 213 210 210 211 209 207 206 204 206 208 207 205 207 210 214 216 218 220 222 224 222 218 216 217 218 218 218 219 219 219 223 225 224 224 222 219 219 220 223 224 229
218 218 214 211 212 213 212 210 209 207 208 208 206 205 207 212 216 220 223 223 226 229 227 223 222 222 222 223 225 228 228 231 232 232 232 232 231 229 228 228 228 230
217 220 220 217 215 216 216 216 215 213 211 210 209 207 206 210 214 219 224 225 227 230 231 232 232 231 231 232 233 234 237 239 242 243 243 243 245 245 243 241 239 239
216 217 219 219 218 216 216 218 219 219 218 216 215 213 209 209 213 218 223 227 228 229 230 232 234 235 237 240 242 243 244 245 249 253 254 254 255 257 257 256 254 253
220 219 219 218 218 218 219 220 220 222 225 224 223 222 218 213 213 216 220 224 227 229 230 232 233 234 235 238 243 247 249 249 249 252 255 258 259 259 261 263 265 265
224 223 222 219 219 219 220 223 223 224 228 231 230 230 228 224 219 217 218 221 225 228 229 232 233 234 234 235 238 242 245 248 249 249 252 254 256 258 259 261 265 268
227 225 225 224 223 222 222 225 227 226 228 233 234 232 232 233 230 226 222 221 224 227 229 232 233 234 235 236 238 240 242 245 247 249 249 249 251 253 254 256 258 260
228 228 230 229 227 226 227 228 230 230 230 233 237 237 234 234 235 235 232 229 229 230 232 233 234 235 235 236 237 238 240 242 243 245 247 248 249 249 250 251 252 254
227 231 234 234 232 231 232 233 233 232 232 233 238 241 240 237 236 236 235 235 234 234 235 236 237 239 240 240 240 241 242 243 243 244 246 247 248 249 249 249 250 251
226 231 234 234 233 231 231 232 233 233 233 235 239 242 242 241 241 238 236 235 235 234 235 235 235 238 241 244 246 248 251 253 253 253 253 254 255 256 257 256 254 253
224 231 235 234 231 227 226 229 231 232 234 237 240 243 243 244 245 245 242 239 237 237 237 237 237 239 239 241 245 250 254 256 258 258 259 260 261 263 266 267 267 265
216 223 231 233 232 231 231 233 233 234 236 238 240 242 243 243 245 246 246 244 243 243 243 243 243 246 247 245 244 247 249 249 250 252 254 255 256 258 261 265 268 270
216 221 224 225 226 229 233 237 237 237 238 239 240 241 241 243 244 244 243 242 242 243 245 248 249 251 254 255 254 255 255 254 254 255 256 258 259 258 257 257 258 260
225 228 229 230 229 228 230 233 236 238 240 241 241 241 242 243 244 242 240 240 240 240 241 244 248 250 252 256 259 261 262 263 265 265 266 268 268 268 265 262 258 257
230 232 232 232 233 233 232 232 231 232 237 241 242 243 244 245 246 246 246 245 246 247 247 248 250 251 251 253 257 260 262 264 268 269 269 270 271 272 272 269 266 263
228 230 228 226 230 233 235 236 235 233 234 238 242 245 247 248 249 251 253 252 250 249 248 249 252 255 257 258 259 259 260 263 266 268 268 269 270 270 271 271 270 268